{"data":{"norad_id":55583,"intl_designator":"2023-020Q","name":"STARLINK-5742","alt_names":[],"object_type":"PAYLOAD","status":"ACTIVE","operator":null,"country":"US","launch_date":"2023-02-12","launch_site_code":"AFETR","launch_vehicle":null,"mission":null,"orbit_class":"UNKNOWN","rcs_meters":null,"size_class":null,"mass_kg":null,"dimensions":null,"purposes":["comms"],"wikipedia_slug":null,"has_3d_model":false,"image_url":null,"decayed_at":null,"tle_current":{"epoch":"2026-05-25T02:32:27.588768Z","epoch_age_seconds":61863,"freshness":"FRESH","line1":"1 55583U 23020Q   26145.10587487 -.00000016  00000+0  89593-5 0  9997","line2":"2 55583  42.9961 293.3000 0001883 290.0659  69.9990 15.27586789180602","mean_motion":15.27586789,"eccentricity":0.0001883,"inclination_deg":42.9961,"raan_deg":293.3,"arg_perigee_deg":290.0659,"mean_anomaly_deg":69.999,"bstar":8.9593e-6,"rev_number":18060,"period_min":94.266329767271,"perigee_km":481.73680989261,"apogee_km":484.32072492061,"semimajor_km":6861.1657674066,"source":"CELESTRAK","updated_at":"2026-05-25T13:38:17.837172Z"}}}